User: anonymous   Login
Location: Caribou
(46.8667°N, 68.0167°W)
Time: 04:43:02
(UTC-05:00)
Language:

SL-08 RB Rocket - Orbit

View from above orbital plane
View from above orbital plane
View from above satellite
View from above satellite

Ground track
Ground track

The orbit data is extracted from the following two-line orbital elements,

1 26387U 00033D   14353.22215815  .00001319  00000-0  23974-3 0  6904
2 26387 098.0855 058.7586 0026236 350.3885 074.9066 14.67592869774224
Epoch (UTC): 19 December 2014 05:19:54
Eccentricity: 0.0026236
inclination: 98.0855°
perigee height: 650 km
apogee height: 687 km
right ascension of ascending node: 58.7586°
argument of perigee: 350.3885°
revolutions per day: 14.67592869
mean anomaly at epoch: 74.9066°
orbit number at epoch: 77422

The dashed part of the orbit path shows where the satellite is in the earth's shadow,  

DLR